Location: Pedholt
(56.0260°N, 10.2097°E)
Time: 12:35:25
(UTC+00:00)

Tiros 1 - Pass Details

Date: 02 August 2021
Orbit: 630 x 663 km, 48.4° (Epoch: 23 September)

Event Time Altitude Azimuth Distance (km) Brightness Sun altitude
Rises 20:11:40 0° 259° (W) 2,977 11.1 -5.9°
Reaches altitude 10° 20:14:12 10° 249° (WSW) 2,060 10.1 -6.2°
Maximum altitude 20:18:23 32° 188° (S) 1,122 8.1 -6.6°
Drops below altitude 10° 20:22:33 10° 125° (SE) 2,039 9.1 -7.0°
Enters shadow 20:22:58 - 123° (ESE) 2,185 9.2 -7.1°
Sets 20:25:03 0° 116° (ESE) 2,942 - -7.3°
